Regional Weather Roundup
Issued by NWS

Home | Current Version | Previous Version | Text Only | Print | Product List | Glossary On
Versions: 1 2 3 4 5 6 7 8 9 10 11 12 13 14 15 16 17 18 19 20 21 22 23 24 25 26 27 28
000
ASUS44 KJAN 300710
RWRMS

MISSISSIPPI HOURLY WEATHER ROUNDUP
NATIONAL WEATHER SERVICE JACKSON MS
200 AM CDT SUN APR 30 2017

NOTE: "FAIR: INDICATES FEW OR NO CLOUDS BELOW 12,000 FEET WITH NO
SIGNIFICANT WEATHER AND/OR OBSTRUCTIONS TO VISIBILITY.

MSZ001>002-007>008-010>013-018>021-025>028-034>036-300800-
NORTHWEST MISSISSIPPI

CITY           SKY/WX    TMP DP  RH WIND       PRES   REMARKS
BATESVILLE     PTSUNNY   75  66  73 SE13G22   29.79S
CLARKSDALE     CLOUDY    77  73  88 SE16      29.76S
CLEVELAND      FAIR      77  74  88 S16G23    29.74F
GREENWOOD      CLOUDY    78  70  76 S15       29.78R
GREENVILLE     CLOUDY    77  68  73 S16G25    29.74F
OXFORD         MOCLDY    73  66  78 SE13G28   29.81F
TUNICA         CLOUDY    72  68  88 SE13      29.77R
WINONA         PTSUNNY   76  69  80 S10G22    29.78R
$$

MSZ003>006-009-014>017-022>024-029>033-037>039-300800-
NORTHEAST MISSISSIPPI

CITY           SKY/WX    TMP DP  RH WIND       PRES   REMARKS
COLUMBUS AFB   NOT AVBL
CORINTH        FAIR      75  64  69 S13G24    29.84F
GOLDN TRIANGLE CLEAR     73  64  73 SE21G30   29.80F
STARKVILLE     PTSUNNY   73  68  83 SE18G25   29.82F
TUPELO         CLOUDY    75  65  70 SE17G24   29.83F
$$

MSZ040-058-300800-
CENTRAL MISSISSIPPI

CITY           SKY/WX    TMP DP  RH WIND       PRES   REMARKS
JACKSON INTL   CLOUDY    78  69  73 SE23G35   29.77S
JACKSON HAWKNS CLOUDY    78  69  73 S20G31    29.77R
MADISON        PTSUNNY   77  68  73 S10G23    29.77S
MERIDIAN KEY   PTCLDY    76  71  85 SE17G25   29.86F
MERIDIAN NAS   PTCLDY    75  67  76 SE12      29.87F
RAYMOND        CLOUDY    79  70  73 S20G32    29.76S
VICKSBURG VKS  CLOUDY    79  70  73 S14       29.71F
$$

MSZ059>079-300800-
SOUTH MISSISSIPPI

CITY           SKY/WX    TMP DP  RH WIND       PRES   REMARKS
HATTIESBURG    CLOUDY    78  71  79 SE17G24   29.86F
LAUREL         CLOUDY    75  75 100 SE12G20   29.87F
MCCOMB         CLOUDY    78  69  73 SE23G35   29.78F
NATCHEZ        CLOUDY    78  70  76 S18G26    29.71F
PINE BELT      CLOUDY    75  70  83 SE16G24   29.86F
$$

MSZ080>082-300800-
COASTAL MISSISSIPPI

CITY           SKY/WX    TMP DP  RH WIND       PRES   REMARKS
BILOXI         CLOUDY    77  73  88 SE14G26   29.89F
PASCAGOULA     MOCLDY    76  72  87 SE12      29.91F
GULFPORT       CLOUDY    78  74  87 SE18G29   29.88F
$$

LAZ007>009-015>016-023>026-300800-
NORTHEAST LOUISIANA

CITY           SKY/WX    TMP DP  RH WIND       PRES   REMARKS
BASTROP        TSTM      79  73  81 SE5       29.70F
TALLULAH/VBURG CLOUDY    79  69  71 S13G26    29.74F
VIDALIA        CLOUDY    78  70  74 S18       29.69F
$$




USA.gov is the U.S. government's official web portal to all federal, state and local government web resources and services.